Regional Weather Roundup
Issued by NWS

Home | Current Version | Previous Version | Text Only | Print | Product List | Glossary On
Versions: 1 2 3 4 5 6 7 8 9 10 11 12 13 14 15 16 17 18 19 20 21 22 23 24 25 26 27 28 29 30 31 32 33 34 35 36 37 38 39 40 41 42 43 44 45 46 47 48 49 50
000
ASUS44 KFWD 010615
RWRTX
NORTH TEXAS HOURLY WEATHER ROUNDUP
NATIONAL WEATHER SERVICE FORT WORTH TX
100 AM CDT WED OCT 01 2014

NOTE: "FAIR" INDICATES FEW OR NO CLOUDS BELOW 12,000 FEET WITH NO
SIGNIFICANT WEATHER AND/OR OBSTRUCTIONS TO VISIBILITY.

TXZ118-119-010700-
DALLAS/FORT WORTH METROPLEX

CITY           SKY/WX    TMP DP  RH WIND       PRES   REMARKS
DFW AIRPORT    CLEAR     80  68  66 S13       29.77R
6HR MIN TEMP:  80; 6HR MAX TEMP:  88;

DALLAS LOVE    PTCLDY    79  68  69 S9        29.78R
6HR MIN TEMP:  79; 6HR MAX TEMP:  88;

FTW MEACHAM    CLEAR     79  66  64 S12       29.77R
6HR MIN TEMP:  79; 6HR MAX TEMP:  89;

DAL-EXECUTIVE  CLEAR     79  68  69 S7        29.78R
6HR MIN TEMP:  79; 6HR MAX TEMP:  89;

FTW-ALLIANCE   PTCLDY    77  66  68 S7        29.77R
6HR MIN TEMP:  77; 6HR MAX TEMP:  87;

FTW-NAS-JRB    CLEAR     80  63  55 S8        29.81S
6HR MIN TEMP:  80; 6HR MAX TEMP:  91;

FTW-SPINKS     CLEAR     76  65  70 S5        29.80R
6HR MIN TEMP:  76; 6HR MAX TEMP:  87;

ARLINGTON      CLEAR     78  68  71 SE6       29.78R
6HR MIN TEMP:  77; 6HR MAX TEMP:  88;

GRAND PRAIRIE  CLEAR     78  67  67 S6        29.80R
6HR MIN TEMP:  78; 6HR MAX TEMP:  87;

ADDISON        CLEAR     79  67  67 S10       29.80R
6HR MIN TEMP:  79; 6HR MAX TEMP:  87;

MESQUITE       CLEAR     76  68  75 S5        29.78S
6HR MIN TEMP:  76; 6HR MAX TEMP:  86;

LANCASTER      CLEAR     75  66  74 S3        29.79R
6HR MIN TEMP:  75; 6HR MAX TEMP:  87;

$$

TXZ091>094-102>105-117-120-121-131>134-010700-
NORTH CENTRAL TEXAS

CITY           SKY/WX    TMP DP  RH WIND       PRES   REMARKS
SHRMAN/DENISON CLEAR     77  66  70 SE9       29.80R
6HR MIN TEMP:  75; 6HR MAX TEMP:  84;

GAINESVILLE    CLEAR     71  65  80 SE7       29.80S
6HR MIN TEMP:  71; 6HR MAX TEMP:  83;

BOWIE          CLEAR     71  62  71 SE3       29.77S
6HR MIN TEMP:  70; 6HR MAX TEMP:  85;

BRIDGEPORT     CLEAR     76  59  55 S6        29.78S
6HR MIN TEMP:  76; 6HR MAX TEMP:  88;

DECATUR        CLEAR     76  61  60 SE8       29.78F
6HR MIN TEMP:  76; 6HR MAX TEMP:  86;

DENTON         CLEAR     75  66  73 S6        29.78R
6HR MIN TEMP:  75; 6HR MAX TEMP:  87;

MCKINNEY       CLEAR     75  68  78 S6        29.78S
6HR MIN TEMP:  75; 6HR MAX TEMP:  85;

GREENVILLE     CLEAR     73  66  78 SE5       29.80R
ROCKWALL       CLEAR     76  69  80 S5        29.78R
6HR MIN TEMP:  76; 6HR MAX TEMP:  85;

TERRELL        CLEAR     77  69  76 S8        29.79S
6HR MIN TEMP:  77; 6HR MAX TEMP:  88;

WAXAHACHIE     CLEAR     76  69  78 SE6       29.80R
6HR MIN TEMP:  76; 6HR MAX TEMP:  86;

CLEBURNE       CLEAR     75  68  78 S5        29.81R
GRANBURY       CLEAR     78  65  63 S6        29.80R
6HR MIN TEMP:  78; 6HR MAX TEMP:  89;

$$

TXZ083>090-098>101-113>116-127>130-139>142-154-155-010700-
WESTERN NORTH TEXAS

CITY           SKY/WX    TMP DP  RH WIND       PRES   REMARKS
WICHITA FALLS  PTCLDY    78  56  46 S15G25    29.72F
6HR MIN TEMP:  76; 6HR MAX TEMP:  87;

WF-KICKAPOO    PTCLDY    75  55  48 SE9       29.75S
6HR MIN TEMP:  75; 6HR MAX TEMP:  88;

VERNON         PTCLDY    75  60  58 S10       29.74S THUNDER
6HR MIN TEMP:  75; 6HR MAX TEMP:  86; 6HR PCP:  0.05;

ABILENE        CLEAR     77  60  55 S12       29.78F
6HR MIN TEMP:  77; 6HR MAX TEMP:  88;

ABILENE-DYESS  CLEAR     76  61  58 S13       29.77S
6HR MIN TEMP:  76; 6HR MAX TEMP:  87;

BRECKENRIDGE   CLEAR     78  60  53 S12       29.76F
6HR MIN TEMP:  78; 6HR MAX TEMP:  89;

GRAHAM         CLEAR     78  59  51 SE9G16    29.74S
6HR MIN TEMP:  78; 6HR MAX TEMP:  88;

MINERAL WELLS  CLEAR     72  59  63 SE9       29.76F
6HR MIN TEMP:  71; 6HR MAX TEMP:  87;

STEPHENVILLE   CLEAR     74  63  68 S5        29.83S
6HR MIN TEMP:  74; 6HR MAX TEMP:  85;

COMANCHE       CLEAR     73  61  66 S5        29.81S
6HR MIN TEMP:  73; 6HR MAX TEMP:  86;

BROWNWOOD      PTCLDY    73  63  68 SE6       29.81S
COLEMAN        CLEAR     73  60  62 S7        29.81S
6HR MIN TEMP:  73; 6HR MAX TEMP:  87;

BRADY          CLEAR     72  63  73 SE3       29.82S
$$

TXZ143>147-156>162-174-175-010700-
CENTRAL TEXAS

CITY           SKY/WX    TMP DP  RH WIND       PRES   REMARKS
WACO           CLEAR     77  69  76 S12       29.78S
6HR MIN TEMP:  77; 6HR MAX TEMP:  86;

WACO-MCGREGOR  CLEAR     75  64  69 S10       29.80S
6HR MIN TEMP:  75; 6HR MAX TEMP:  88;

HILLSBORO      CLEAR     77  67  70 SE10      29.78F
6HR MIN TEMP:  77; 6HR MAX TEMP:  87;

CORSICANA      CLEAR     76  69  79 S9        29.80S
6HR MIN TEMP:  76; 6HR MAX TEMP:  86;

MEXIA          CLEAR     73  70  91 SE5       29.79S
6HR MIN TEMP:  73; 6HR MAX TEMP:  83;

HEARNE         CLEAR     74  71  91 SE5       29.80S
6HR MIN TEMP:  74; 6HR MAX TEMP:  85;

CAMERON        CLEAR     75  71  88 S8        29.80S
6HR MIN TEMP:  75; 6HR MAX TEMP:  85;

TEMPLE         CLEAR     73  64  73 S10       29.79S
6HR MIN TEMP:  73; 6HR MAX TEMP:  84;

KILLEEN        CLEAR     75  70  83 S9        29.80R
KILLEEN-SKYLRK CLEAR    N/A N/A N/A S10       29.78F
6HR MIN TEMP:  75; 6HR MAX TEMP:  86;

GATESVILLE     CLEAR     75  68  78 S7        29.81S
HAMILTON       CLEAR     74  64  72 S12       29.82R
6HR MIN TEMP:  74; 6HR MAX TEMP:  86;

LAMPASAS       CLEAR     76  70  84 S3        29.80S
6HR MIN TEMP:  76; 6HR MAX TEMP:  83;

$$

TXZ095>097-106>112-122>126-135>138-148>153-164>167-010700-
EAST TEXAS

CITY           SKY/WX    TMP DP  RH WIND       PRES   REMARKS
PARIS          CLEAR     72  61  68 E8        29.81S
6HR MIN TEMP:  72; 6HR MAX TEMP:  81;

SULPHUR SPRNGS CLEAR     77  68  73 S7        29.82S
6HR MIN TEMP:  76; 6HR MAX TEMP:  86;

MOUNT PLEASANT CLEAR     73  67  82 CALM      29.82S
6HR MIN TEMP:  73; 6HR MAX TEMP:  83;

GILMER         CLEAR     77  72  83 S6        29.82F
MINEOLA        CLEAR     72  70  94 SE3       29.81S
TYLER          CLEAR     76  70  82 S5        29.81S
6HR MIN TEMP:  76; 6HR MAX TEMP:  84;

LONGVIEW       CLEAR     75  68  78 SE5       29.81S
6HR MIN TEMP:  75; 6HR MAX TEMP:  84;

MARSHALL       PTCLDY    74  69  84 CALM      29.84S
6HR MIN TEMP:  73; 6HR MAX TEMP:  84;

ATHENS         CLEAR     72  70  94 CALM      29.79S
PALESTINE      CLEAR     75  72  88 SE3       29.82S
HENDERSON      CLEAR     73  70  91 CALM      29.83S
6HR MIN TEMP:  72; 6HR MAX TEMP:  83;

NACOGDOCHES    CLEAR     72  70  94 SE3       29.83S
6HR MIN TEMP:  72; 6HR MAX TEMP:  82;

LUFKIN         CLOUDY    77  72  84 SE6       29.82S
6HR MIN TEMP:  76; 6HR MAX TEMP:  84;

$$

SUPPLEMENTAL OBSERVATIONS (CENTRAL)

CITY           SKY/WX    TMP DP  RH WIND       PRES   REMARKS
LAKE TEXOMA      N/A     72  66  83 E5          N/A
CADDO GRASSLND   N/A     72  64  78 SE3         N/A
PAT MAYSE LAKE   N/A     73  66  78 E7          N/A
GREENVILLE       N/A     75  68  78 SE5         N/A
CEDAR HILL       N/A     77  66  69 S8G16       N/A
ATHENS           N/A     77  70  78 S7          N/A
PALESTINE        N/A     75  70  83 S3          N/A
MCGREGOR         N/A     75  68  78 S12         N/A
TEMPLE           N/A     73  68  83 S6          N/A


USA.gov is the U.S. government's official web portal to all federal, state and local government web resources and services.